Precipitable_Water
1.65 1.73 1.66 1.56 1.47 1.44 1.40 1.38 1.33 1.28 1.26 1.26 1.24 1.18 1.11 1.06 1.01 0.97 0.95 0.95 0.95 0.93 0.88 0.87 0.85 0.83 0.85 0.88 0.88 0.88 0.89 0.91 0.88 0.90 0.90 0.89 0.95 1.05 1.06 1.13 1.21 1.30 1.45
1.68 1.66 1.55 1.47 1.44 1.41 1.38 1.34 1.29 1.27 1.24 1.16 1.08 1.01 0.94 0.89 0.84 0.82 0.82 0.79 0.77 0.78 0.74 0.70 0.71 0.73 0.70 0.68 0.68 0.74 0.80 0.83 0.85 0.87 0.85 0.85 0.86 1.00 1.08 1.19 1.15 1.19 1.28
1.58 1.61 1.54 1.47 1.45 1.40 1.35 1.29 1.22 1.16 1.06 0.99 0.93 0.88 0.85 0.82 0.78 0.72 0.71 0.70 0.66 0.63 0.64 0.62 0.61 0.62 0.64 0.66 0.67 0.70 0.70 0.75 0.81 0.86 0.87 0.92 1.00 1.02 1.12 1.16 1.24 1.22 1.27
1.55 1.58 1.53 1.49 1.42 1.37 1.29 1.16 1.04 0.96 0.92 0.90 0.88 0.85 0.80 0.72 0.68 0.65 0.59 0.59 0.58 0.59 0.59 0.57 0.55 0.52 0.50 0.49 0.49 0.54 0.65 0.68 0.76 0.84 0.90 0.95 1.03 1.10 1.09 1.09 1.12 1.17 1.27
1.57 1.55 1.50 1.43 1.34 1.20 1.04 0.94 0.94 0.92 0.89 0.85 0.80 0.74 0.68 0.66 0.61 0.56 0.58 0.59 0.59 0.59 0.60 0.59 0.59 0.58 0.57 0.55 0.54 0.53 0.53 0.58 0.68 0.79 0.88 0.98 1.02 1.05 1.04 1.02 1.02 1.15 1.24
1.49 1.49 1.44 1.29 1.07 0.95 0.90 0.91 0.88 0.83 0.79 0.73 0.69 0.67 0.65 0.59 0.57 0.60 0.61 0.60 0.59 0.59 0.60 0.60 0.60 0.60 0.59 0.57 0.57 0.58 0.57 0.57 0.68 0.76 0.90 0.97 1.01 0.95 0.99 1.03 1.18 1.25 1.26
1.36 1.35 1.16 1.00 0.88 0.84 0.86 0.83 0.75 0.67 0.66 0.65 0.64 0.61 0.58 0.63 0.66 0.70 0.68 0.68 0.67 0.67 0.66 0.70 0.72 0.73 0.70 0.64 0.68 0.72 0.70 0.66 0.73 0.82 0.89 1.01 0.98 0.91 0.95 1.04 1.06 1.08 1.21
1.04 0.96 0.88 0.83 0.82 0.80 0.74 0.64 0.62 0.63 0.63 0.63 0.61 0.68 0.77 0.79 0.80 0.81 0.78 0.75 0.72 0.73 0.73 0.73 0.72 0.73 0.74 0.74 0.76 0.78 0.79 0.77 0.80 0.83 0.96 1.05 1.04 1.04 0.99 0.96 0.87 0.91 1.03
0.78 0.75 0.78 0.76 0.72 0.64 0.57 0.56 0.59 0.59 0.60 0.64 0.75 0.83 0.84 0.87 0.88 0.86 0.84 0.80 0.77 0.75 0.73 0.70 0.71 0.70 0.71 0.72 0.74 0.75 0.75 0.79 0.80 0.80 0.84 0.94 1.05 1.09 1.09 1.07 0.96 0.89 0.78
0.70 0.74 0.78 0.73 0.62 0.54 0.52 0.56 0.59 0.64 0.72 0.82 0.90 0.93 0.93 0.95 0.93 0.91 0.87 0.83 0.80 0.77 0.76 0.76 0.76 0.75 0.74 0.73 0.72 0.73 0.74 0.73 0.71 0.75 0.79 0.83 0.89 0.95 1.05 1.05 0.97 0.89 0.80
0.75 0.83 0.78 0.69 0.67 0.60 0.65 0.72 0.79 0.85 0.88 0.93 0.95 0.96 0.95 0.95 0.93 0.92 0.90 0.87 0.86 0.85 0.83 0.83 0.83 0.83 0.80 0.78 0.75 0.75 0.73 0.70 0.68 0.65 0.64 0.68 0.76 0.84 0.91 0.93 0.92 0.88 0.83
0.69 0.77 0.81 0.70 0.69 0.75 0.84 0.89 0.92 0.93 0.96 0.98 0.98 0.95 0.94 0.97 0.96 0.93 0.90 0.90 0.92 0.92 0.92 0.91 0.89 0.89 0.87 0.83 0.79 0.79 0.76 0.75 0.70 0.64 0.62 0.62 0.65 0.72 0.79 0.82 0.80 0.81 0.80
0.83 0.88 0.92 0.84 0.79 0.83 0.85 0.92 0.95 0.98 0.98 1.03 1.05 1.01 0.96 0.97 0.96 0.93 0.91 0.89 0.90 0.89 0.88 0.88 0.84 0.84 0.83 0.82 0.78 0.79 0.81 0.80 0.77 0.73 0.68 0.66 0.66 0.66 0.65 0.67 0.70 0.72 0.75
0.91 0.94 0.95 0.96 0.89 0.91 0.94 0.96 0.98 1.02 1.10 1.09 1.08 1.06 0.96 0.91 0.87 0.86 0.84 0.85 0.86 0.88 0.87 0.87 0.83 0.82 0.81 0.80 0.76 0.75 0.77 0.78 0.78 0.78 0.77 0.73 0.71 0.68 0.68 0.67 0.65 0.65 0.68
0.93 1.00 1.02 1.08 1.07 1.06 1.06 1.03 1.07 1.07 1.10 1.11 1.10 1.08 0.98 0.86 0.85 0.88 0.87 0.87 0.85 0.86 0.84 0.81 0.80 0.79 0.77 0.75 0.75 0.72 0.68 0.69 0.72 0.76 0.77 0.77 0.76 0.74 0.72 0.70 0.69 0.67 0.65
0.95 1.03 1.06 1.06 1.06 1.06 1.04 1.06 1.05 1.06 1.08 1.10 1.10 1.07 1.01 0.96 0.94 0.95 0.93 0.91 0.88 0.85 0.82 0.79 0.76 0.73 0.71 0.70 0.68 0.67 0.65 0.64 0.64 0.67 0.70 0.72 0.72 0.74 0.74 0.74 0.71 0.70 0.66
0.96 1.04 1.09 1.09 1.07 1.07 1.05 1.08 1.09 1.08 1.07 1.05 1.07 1.06 1.02 1.00 1.00 0.98 0.93 0.87 0.85 0.82 0.78 0.79 0.78 0.74 0.69 0.65 0.58 0.54 0.53 0.51 0.50 0.53 0.58 0.61 0.60 0.65 0.69 0.74 0.76 0.72 0.69
1.02 1.09 1.22 1.23 1.27 1.30 1.19 1.13 1.11 1.08 1.05 1.04 1.06 1.04 1.02 1.00 0.97 0.92 0.85 0.81 0.81 0.79 0.77 0.75 0.75 0.69 0.62 0.56 0.51 0.49 0.49 0.49 0.48 0.47 0.49 0.55 0.59 0.60 0.60 0.61 0.71 0.76 0.72
1.09 1.17 1.29 1.32 1.33 1.32 1.27 1.16 1.04 1.00 0.97 0.97 0.99 0.98 0.96 0.94 0.91 0.85 0.82 0.81 0.80 0.77 0.75 0.70 0.66 0.62 0.53 0.49 0.48 0.47 0.48 0.49 0.50 0.54 0.54 0.53 0.54 0.57 0.60 0.62 0.63 0.68 0.73
1.19 1.28 1.37 1.34 1.32 1.24 1.19 1.05 1.00 0.94 0.93 0.95 0.93 0.91 0.91 0.87 0.85 0.83 0.82 0.80 0.76 0.71 0.68 0.63 0.58 0.54 0.51 0.50 0.47 0.45 0.45 0.44 0.50 0.52 0.52 0.55 0.56 0.57 0.57 0.59 0.61 0.65 0.71
1.17 1.19 1.22 1.24 1.20 1.09 1.01 0.96 0.88 0.88 0.89 0.88 0.88 0.88 0.86 0.84 0.82 0.80 0.76 0.73 0.72 0.66 0.62 0.61 0.57 0.50 0.45 0.47 0.41 0.37 0.37 0.45 0.41 0.42 0.43 0.45 0.48 0.53 0.55 0.55 0.56 0.60 0.66
1.10 1.07 1.01 1.00 0.99 0.93 0.88 0.88 0.86 0.84 0.84 0.84 0.83 0.81 0.81 0.79 0.76 0.74 0.71 0.68 0.61 0.53 0.47 0.45 0.43 0.40 0.40 0.43 0.35 0.31 0.24 0.25 0.33 0.32 0.32 0.32 0.35 0.38 0.40 0.47 0.52 0.53 0.59
0.87 0.84 0.79 0.77 0.76 0.76 0.77 0.79 0.81 0.83 0.82 0.77 0.74 0.72 0.73 0.72 0.70 0.66 0.61 0.53 0.46 0.42 0.37 0.37 0.38 0.36 0.31 0.35 0.36 0.33 0.24 0.20 0.26 0.29 0.28 0.31 0.31 0.32 0.34 0.35 0.36 0.46 0.54
0.74 0.75 0.76 0.76 0.75 0.75 0.76 0.73 0.70 0.67 0.65 0.70 0.71 0.72 0.71 0.71 0.68 0.60 0.53 0.46 0.41 0.40 0.36 0.36 0.37 0.35 0.34 0.30 0.34 0.36 0.37 0.34 0.26 0.22 0.31 0.29 0.30 0.29 0.31 0.32 0.32 0.39 0.44
0.74 0.72 0.73 0.75 0.75 0.76 0.77 0.77 0.74 0.71 0.71 0.71 0.70 0.68 0.66 0.62 0.56 0.48 0.44 0.40 0.37 0.35 0.33 0.32 0.32 0.32 0.33 0.31 0.31 0.32 0.33 0.33 0.34 0.30 0.23 0.27 0.32 0.32 0.34 0.34 0.33 0.37 0.39
0.78 0.77 0.76 0.78 0.78 0.80 0.78 0.76 0.73 0.68 0.65 0.64 0.63 0.59 0.52 0.49 0.45 0.41 0.38 0.37 0.36 0.34 0.32 0.33 0.33 0.33 0.31 0.30 0.31 0.31 0.31 0.31 0.30 0.31 0.29 0.28 0.29 0.32 0.35 0.36 0.35 0.37 0.38
Wind_Speed
8 8 7 6 4 4 4 4 4 4 4 3 3 4 5 6 7 8 8 9 9 9 10 11 12 12 12 12 12 13 13 13 13 13 13 13 13 13 13 12 11 10 11
8 8 7 6 5 4 4 3 3 2 1 1 2 3 5 6 7 8 8 8 8 9 9 11 12 12 12 12 12 12 12 12 12 13 13 13 12 12 11 11 11 11 11
8 8 7 6 5 4 3 2 2 0 0 1 1 3 5 6 7 7 7 8 8 9 10 11 11 11 11 11 11 11 11 11 11 12 11 11 10 10 10 11 10 11 12
9 8 7 6 5 4 3 2 1 1 1 1 2 4 5 5 6 6 8 8 9 9 10 11 11 11 11 11 11 11 11 11 10 10 10 9 9 9 11 10 10 11 11
9 8 7 6 6 5 4 3 2 1 1 2 2 3 3 4 6 7 8 9 10 10 11 11 11 12 12 12 12 12 12 12 11 10 10 9 8 9 9 10 11 11 12
8 7 7 7 7 6 4 3 1 1 0 1 1 2 3 5 7 8 9 10 10 11 11 12 13 13 13 13 13 13 13 13 13 12 11 10 9 10 10 10 8 9 10
8 8 9 9 8 6 4 2 2 1 1 2 2 2 4 6 8 9 10 10 11 12 12 13 14 15 15 15 14 15 15 15 14 13 12 12 12 11 11 11 10 10 10
10 10 10 9 7 5 3 3 2 2 1 1 2 4 5 6 8 9 10 11 12 13 13 15 15 15 15 15 15 16 17 16 15 15 13 13 13 13 13 12 12 12 12
11 11 10 8 6 4 4 3 2 1 0 1 3 4 5 7 9 11 12 13 14 14 14 14 15 15 15 16 17 17 17 16 16 16 16 15 15 15 14 14 14 14 14
12 10 8 6 5 5 4 3 2 1 1 1 3 5 7 9 11 12 13 14 14 14 15 15 16 16 17 17 18 18 18 17 17 17 17 17 17 18 17 17 17 16 16
10 8 7 6 5 4 3 3 2 1 2 3 5 7 9 11 13 14 14 15 16 16 16 17 18 19 19 20 19 19 19 18 18 18 18 19 19 19 20 20 19 19 19
9 8 6 5 5 4 3 3 3 3 4 6 8 10 12 13 14 15 16 17 18 19 20 21 21 21 21 22 22 21 21 20 19 19 19 19 19 19 20 21 21 21 21
10 7 6 5 5 4 4 4 5 6 7 9 10 12 14 15 16 17 18 19 20 20 21 22 22 22 23 23 24 24 23 23 23 22 21 20 20 20 21 22 23 23 22
9 7 6 5 4 5 5 7 7 8 9 12 13 15 16 16 17 18 20 21 21 22 22 23 24 24 25 26 26 25 26 26 26 26 26 25 24 24 24 23 23 24 24
9 8 7 7 7 7 8 8 9 11 14 15 17 17 18 19 20 21 22 23 24 24 24 26 26 27 28 29 28 28 28 28 28 28 28 28 29 29 28 27 27 26 26
10 10 8 7 7 8 8 10 12 15 17 17 19 19 20 22 23 24 25 26 26 26 27 28 29 30 31 31 31 32 32 32 32 32 32 32 32 32 33 33 32 31 30
10 11 11 10 8 9 10 11 14 16 18 20 20 21 23 24 25 26 26 26 28 29 30 31 33 34 34 34 34 34 34 34 34 35 35 36 36 36 37 36 36 36 35
12 13 12 11 9 11 12 14 17 19 20 20 22 23 25 25 26 27 27 28 30 31 33 35 36 37 37 38 38 37 37 38 38 38 38 38 38 38 38 39 39 39 39
14 14 13 12 13 12 14 16 18 19 20 22 22 24 25 27 28 28 29 31 32 34 35 37 38 40 41 42 43 43 42 42 41 41 39 39 39 39 39 39 40 41 42
11 14 13 14 15 17 18 20 19 21 21 23 24 26 27 28 29 31 32 34 36 38 40 42 44 44 45 46 46 45 45 44 42 42 42 43 43 42 42 42 42 42 43
8 10 14 15 18 20 20 21 22 23 24 25 26 27 29 30 31 33 35 38 40 42 43 45 46 47 46 47 48 49 49 44 47 46 46 46 46 46 47 47 47 46 45
8 10 13 16 18 19 21 22 24 24 25 26 28 29 30 32 34 36 39 41 43 45 46 47 48 48 48 49 50 51 50 52 48 51 50 50 50 50 51 51 51 51 50
10 11 13 15 17 20 22 23 25 26 28 29 30 31 32 34 36 39 41 43 45 47 48 49 49 50 51 51 51 50 51 51 56 51 54 51 52 52 52 52 53 53 52
11 13 15 18 20 22 24 25 26 27 28 29 30 33 35 37 40 42 44 46 48 49 49 49 50 51 51 52 52 51 52 54 54 57 53 54 52 52 51 51 51 51 51
13 15 18 20 22 24 25 25 26 27 28 29 32 34 37 40 42 45 46 47 49 49 50 50 51 51 51 52 52 53 54 54 54 54 57 53 54 50 49 48 47 48 48
15 18 20 21 24 24 25 26 27 28 29 31 34 38 41 44 45 47 48 49 50 50 51 51 50 50 50 50 51 51 52 52 52 52 53 53 51 48 45 44 43 42 43
Wind_Direction
215 212 209 220 235 255 270 288 304 316 324 341 358 7 8 3 358 353 349 347 347 347 346 344 341 337 334 327 321 317 315 310 307 300 298 295 290 287 287 281 276 270 263
204 205 209 224 239 247 263 276 301 310 326 353 20 20 5 359 359 356 354 354 357 358 356 353 350 348 343 338 334 327 321 316 311 307 302 297 287 284 282 284 278 270 266
207 208 219 227 233 235 239 255 279 286 105 81 22 356 356 356 2 8 11 9 5 358 355 355 354 354 353 350 346 339 334 327 322 315 308 300 291 286 283 284 280 273 269
208 208 218 221 220 218 212 214 175 147 148 304 326 334 344 357 5 6 2 358 354 350 349 347 346 346 345 347 347 345 342 339 332 329 325 312 300 293 287 282 283 278 267
205 210 211 207 196 186 180 172 179 216 273 296 313 331 352 2 359 352 349 346 344 342 341 339 338 337 334 333 333 332 331 330 327 322 316 316 307 303 296 288 286 283 267
202 201 197 185 175 169 167 175 202 233 345 19 23 23 8 353 346 342 340 337 335 334 333 331 329 327 325 324 324 323 322 321 317 315 309 303 302 305 300 299 291 283 274
194 189 179 171 167 168 174 181 155 123 110 82 38 6 347 341 340 339 338 336 333 331 329 327 326 324 321 318 317 316 315 314 311 309 304 298 295 297 297 292 288 288 276
179 174 171 168 172 179 180 167 165 153 131 13 351 346 343 344 341 341 339 336 333 331 329 327 326 325 323 320 316 315 311 308 306 303 299 294 292 292 290 288 290 285 276
172 170 169 174 181 181 174 178 175 187 297 327 337 343 343 339 335 333 332 330 328 327 327 328 329 328 325 322 318 317 313 308 304 300 296 290 287 286 285 284 283 285 283
169 170 176 181 180 179 186 192 198 236 285 324 328 329 331 331 330 328 327 326 327 326 326 325 327 326 325 323 319 316 314 310 303 297 294 290 285 283 282 281 281 281 280
173 181 187 187 184 190 198 209 216 248 288 309 315 318 322 323 325 326 325 323 322 322 321 320 320 318 318 318 316 316 314 311 306 301 296 290 286 282 279 278 278 278 277
188 190 192 197 197 204 215 222 252 281 292 306 312 314 315 315 318 319 320 319 317 316 315 315 314 314 314 314 312 310 309 308 306 302 298 296 289 283 280 278 277 275 275
186 190 195 204 211 217 235 249 272 278 291 302 308 312 311 311 310 312 313 314 314 313 313 313 313 313 312 312 310 307 304 301 299 297 295 293 291 287 282 279 276 275 274
198 204 205 207 222 241 259 269 277 285 290 302 304 307 309 312 311 310 311 312 312 310 310 310 311 311 310 309 307 305 303 300 297 292 290 289 287 285 283 281 277 274 272
207 211 222 233 251 258 280 276 278 288 294 298 300 302 305 307 308 307 308 308 309 308 308 307 307 309 308 305 304 303 301 299 296 293 290 287 284 281 280 279 276 274 271
216 224 239 245 255 268 281 278 287 292 295 296 298 300 301 305 306 306 306 306 307 307 307 307 306 306 306 304 300 300 298 296 294 291 288 286 284 281 278 275 273 272 270
228 234 242 248 259 274 285 290 296 299 299 300 300 302 303 305 305 306 305 304 305 305 306 305 305 305 304 303 301 300 297 296 293 290 288 285 283 280 278 275 273 269 267
243 245 249 250 262 285 288 298 302 302 305 303 302 303 304 305 305 305 304 304 305 304 304 305 303 303 303 302 300 298 297 295 294 291 288 285 284 281 278 275 273 270 266
250 252 248 254 282 287 296 302 304 304 303 305 304 304 305 305 305 305 305 305 305 304 303 304 303 303 302 300 298 297 295 293 291 289 287 286 284 282 280 277 273 270 267
252 252 253 272 285 294 296 300 302 306 305 305 304 304 305 306 306 306 305 305 305 304 304 303 302 301 300 299 299 296 295 292 289 288 287 286 283 281 279 277 275 272 268
255 257 272 283 289 295 298 300 302 302 302 302 304 305 306 305 306 306 305 306 306 305 305 304 303 302 300 300 297 296 294 290 290 287 287 284 282 280 278 276 274 272 269
269 277 286 291 294 297 299 301 301 302 303 303 304 305 306 306 306 306 306 306 306 305 305 304 304 302 300 300 298 296 293 291 287 289 285 285 282 281 279 276 273 271 268
278 283 290 294 298 300 302 303 303 302 302 301 302 305 306 306 307 307 307 307 307 306 305 304 303 302 300 299 299 296 294 291 292 287 286 283 283 281 279 276 274 271 268
283 289 293 295 300 302 302 304 304 304 303 302 302 304 305 306 306 307 306 306 306 305 304 303 302 301 300 299 297 295 292 292 290 289 286 286 283 282 279 277 273 270 268
287 292 296 300 303 303 303 304 304 305 303 302 303 304 305 306 306 306 306 306 305 305 304 303 303 301 300 299 297 296 294 292 289 287 287 285 284 283 279 277 273 269 266
288 298 298 302 305 305 305 305 304 304 304 304 305 306 307 307 307 307 307 306 306 306 305 304 303 302 302 300 299 297 295 292 290 288 286 285 284 281 277 276 272 269 267